Regional Weather Roundup
Issued by NWS

Home | Current Version | Previous Version | Graphics & Text | Print | Product List | Glossary On
Versions: 1 2 3 4 5 6 7 8 9 10 11 12 13 14 15 16 17 18 19 20 21 22 23 24 25 26 27 28 29 30 31 32 33 34 35 36 37 38 39 40 41 42 43 44 45 46 47 48 49 50
000
ASUS45 KABQ 090610
RWRNM
NEW MEXICO REGIONAL WEATHER ROUNDUP
NATIONAL WEATHER SERVICE ALBUQUERQUE NM
1100 PM MST THU DEC 08 2016

NOTE: "FAIR" MEANS FEW OR NO CLOUDS BELOW 12,000 FEET AGL WITH NO
       SIGNIFICANT WEATHER OR OBSTRUCTIONS TO VISION.

      THIS PRODUCT IS RELEASED AS TWO VERSIONS.  ONE VERSION NEAR
      THE TOP OF THE HOUR CONTAINING PRELIMINARY DATA FROM ALBUQUERQUE
      AND OTHER STATIONS.  A FINAL VERSION WITH ADDITIONAL DATA IS
      ISSUED ABOUT 10 MINUTES AFTER THE HOUR.

NMZ501-503-504-510>518-090700-
NORTHWEST PLATEAU/NORTHCENTRAL MOUNTAINS

CITY           SKY/WX    TMP DP  RH WIND       PRES   REMARKS
FARMINGTON     CLOUDY    32  17  54 E8        30.30R WCI  25
6HR MIN TEMP:  31; 6HR MAX TEMP:  38;

LOS ALAMOS     FAIR      25  15  65 CALM      30.32S
SANTA FE       FAIR      17  11  77 NW3       30.33S
6HR MIN TEMP:  17; 6HR MAX TEMP:  28;

TAOS           FAIR      16   3  57 NW7       30.32S WCI   6
ANGEL FIRE     FAIR      24   9  53 CALM      30.25F

$$
NMZ402-403-502-505>509-090700-
WESTCENTRAL MOUNTAINS/SOUTHWEST MOUNTAINS

CITY           SKY/WX    TMP DP  RH WIND       PRES   REMARKS
GALLUP         FAIR      22  17  81 CALM      30.31R
6HR MIN TEMP:  19; 6HR MAX TEMP:  41;

GRANTS         FAIR      21  16  81 SE6       30.35S WCI  13

$$
NMZ407-409-411-412-090700-
SOUTHERN DESERTS

CITY           SKY/WX    TMP DP  RH WIND       PRES   REMARKS
DEMING         FAIR      31  25  78 NE8       30.41R WCI  23
6HR MIN TEMP:  31; 6HR MAX TEMP:  45;

LAS CRUCES     FAIR      30  25  81 S10       30.43S WCI  21
HOLLOMAN AFB   FAIR      29  22  76 S5        30.49F WCI  24
T OR C         FAIR      34  25  69 S7        30.38F WCI  28
6HR MIN TEMP:  32; 6HR MAX TEMP:  43;


$$
NMZ519>523-090700-
CENTRAL VALLEYS/CENTRAL HIGHLANDS

CITY           SKY/WX    TMP DP  RH WIND       PRES   REMARKS
ALBUQUERQUE    FAIR      28  18  66 CALM      30.37R
6HR MIN TEMP:  27; 6HR MAX TEMP:  37;

DOUBLE EAGLE   FAIR      20  13  75 CALM      30.37R
MORIARTY ARPT  FAIR      10   7  85 N3        30.36S
CLINES CORNERS FAIR      21  18  88 SW16      30.32F WCI   7
6HR MIN TEMP:  16; 6HR MAX TEMP:  21;

BELEN          FAIR      29  23  77 S7        30.37S WCI  22
6HR MIN TEMP:  25; 6HR MAX TEMP:  37;

SOCORRO        FAIR      31  24  76 S7        30.39S WCI  24
6HR MIN TEMP:  30; 6HR MAX TEMP:  40;


$$
NMZ524>526-539-540-090700-
SOUTHCENTRAL MOUNTAINS

CITY           SKY/WX    TMP DP  RH WIND       PRES   REMARKS
RUIDOSO        FAIR      23  19  86 NW7       30.38F WCI  15

$$
NMZ527>531-090700-
NORTHEAST HIGHLANDS/NORTHEAST PLAINS

CITY           SKY/WX    TMP DP  RH WIND       PRES   REMARKS
LAS VEGAS      CLOUDY    17  15  92 S14       30.25F FOG     WCI   3
6HR MIN TEMP:  16; 6HR MAX TEMP:  18;

RATON          CLOUDY    17  14  88 S9        30.27F FOG     WCI   6
6HR MIN TEMP:  15; 6HR MAX TEMP:  17;

CLAYTON        CLOUDY    20  18  92 S18       30.35S WCI   5
6HR MIN TEMP:  19; 6HR MAX TEMP:  20;


$$
NMZ532>537-090700-
EASTCENTRAL PLAINS

CITY           SKY/WX    TMP DP  RH WIND       PRES   REMARKS
TUCUMCARI      CLOUDY    27  18  69 S5        30.42F WCI  22
6HR MIN TEMP:  25; 6HR MAX TEMP:  27;

CANNON AFB     CLOUDY    27  23  84 S15       30.45F WCI  15
6HR MIN TEMP:  24; 6HR MAX TEMP:  27;

CLOVIS AIRPORT CLOUDY    27  16  63 S13       30.45F WCI  16

$$
NMZ028-029-538-090700-
SOUTHEAST PLAINS

CITY           SKY/WX    TMP DP  RH WIND       PRES   REMARKS
ROSWELL        CLOUDY    29  21  72 S10       30.51S WCI  20
6HR MIN TEMP:  29; 6HR MAX TEMP:  31;

ARTESIA        CLOUDY    28  27  93 S10       30.53F WCI  19
CARLSBAD       NOT AVBL


$$



USA.gov is the U.S. government's official web portal to all federal, state and local government web resources and services.